This is the latest recevied weather packets stored in our database for station/object ON7XX-13. If no packets are shown the sender has not sent any weather packets the latest 10 day(s).
| Time | Temp. | Humidity | Pressure | Rain* | Wind** | Luminosity | Snow |
|---|---|---|---|---|---|---|---|
| 1777890882 | 19.44° C | 82% | 1015 hPa | - | - | - | - |
| 1777890268 | 19.44° C | 83% | 1015.1 hPa | - | - | - | - |
| 1777889654 | 18.89° C | 85% | 1015 hPa | - | - | - | - |
| 1777889040 | 18.89° C | 86% | 1015 hPa | - | - | - | - |
| 1777888425 | 18.33° C | 86% | 1015 hPa | - | - | - | - |
| 1777887811 | 18.33° C | 87% | 1015 hPa | - | - | - | - |
| 1777887197 | 17.78° C | 87% | 1015.1 hPa | - | - | - | - |
| 1777886583 | 17.78° C | 88% | 1015.1 hPa | - | - | - | - |
| 1777885968 | 17.78° C | 88% | 1015 hPa | - | - | - | - |
| 1777885354 | 17.78° C | 88% | 1015 hPa | - | - | - | - |
| 1777884740 | 17.78° C | 88% | 1014.9 hPa | - | - | - | - |
| 1777884126 | 17.78° C | 89% | 1014.9 hPa | - | - | - | - |
| 1777883512 | 17.22° C | 90% | 1015 hPa | - | - | - | - |
| 1777882897 | 17.22° C | 91% | 1015 hPa | - | - | - | - |
| 1777882283 | 16.67° C | 91% | 1014.9 hPa | - | - | - | - |
| 1777881669 | 16.11° C | 93% | 1014.9 hPa | - | - | - | - |
| 1777881055 | 16.11° C | 95% | 1014.8 hPa | - | - | - | - |
| 1777880441 | 15.56° C | 96% | 1014.7 hPa | - | - | - | - |
| 1777879826 | 15° C | 99% | 1014.6 hPa | - | - | - | - |
| 1777879212 | 14.44° C | 100% | 1014.6 hPa | - | - | - | - |
| 1777878598 | 14.44° C | 100% | 1014.6 hPa | - | - | - | - |
| 1777877983 | 14.44° C | 100% | 1014.6 hPa | - | - | - | - |
| 1777877369 | 13.89° C | 100% | 1014.4 hPa | - | - | - | - |
| 1777876140 | 13.33° C | 100% | 1014.1 hPa | - | - | - | - |
| 1777875526 | 13.33° C | 100% | 1014.2 hPa | - | - | - | - |
* Rain since midnight (hover to see other rain measurements)
** Current wind speed in m/s (hover to see current wind gust speed)